Volver al catálogo

STARLINK-4489

ActivoComunicacionesVLEO
NORAD 53542·PAYLOAD·🇺🇸 United States

Lanzado Aug 19, 2022 desde Cape Canaveral Space Force Station

Loading…

Próximos Pases (próximas 24 horas)

TLE

ActualizadoSource: CelesTrak SupGP

Época: Sep 14, 2026, 22:24 UTC

1 53542C 22101R   26257.93381944  .00052234  00000+0  15436-2 0  2571
2 53542  53.1572 279.7792 0001084  87.7800 287.8844 15.34357724    13

Sigue STARLINK-4489 en tiempo real con AllMySat

Download on the App Store